Probability
3 3 3 3 3 3 3 3 2 1 0 1 2 2 1 0 0 0 0 0 1 2 2 1 0 0 0 0 0 0 0 0 0 0 0 0 0 0 0 0 0 0 0
3 3 3 3 3 3 3 2 2 1 0 1 2 2 1 0 0 0 0 0 1 2 2 1 0 0 0 0 0 0 0 0 0 0 0 0 0 0 0 0 0 0 0
3 3 3 3 3 2 1 1 1 0 0 0 1 2 2 1 0 0 0 0 0 1 1 1 0 0 0 0 0 0 0 0 0 0 0 0 0 0 0 0 0 0 0
3 3 3 2 1 1 0 0 0 0 0 0 0 1 2 2 1 0 0 0 0 0 0 0 0 0 0 0 0 0 0 0 0 0 0 0 0 0 0 0 0 0 0
3 3 3 1 0 0 0 0 0 0 0 0 0 1 2 2 1 0 0 0 0 0 0 0 0 0 0 0 0 0 0 0 0 0 0 0 0 0 0 0 0 0 0
2 2 2 1 0 0 0 0 0 0 0 0 0 0 1 2 2 1 0 0 0 0 0 0 0 0 0 0 0 1 1 0 0 0 0 0 0 0 0 0 0 0 0
1 1 1 0 0 0 0 0 0 0 0 0 0 0 0 1 1 1 0 0 0 0 0 0 0 0 0 0 0 1 1 0 0 0 0 1 1 0 0 0 0 0 0
0 0 0 0 0 0 0 0 0 0 0 0 0 0 0 0 0 0 0 0 0 0 0 0 0 0 0 0 0 1 1 0 0 0 0 1 1 0 0 0 0 0 0
0 0 0 0 0 0 0 0 0 0 0 0 0 0 0 0 0 0 0 0 0 0 0 0 0 0 0 0 0 0 0 0 0 0 0 1 1 0 0 0 0 0 0
0 0 0 0 0 0 0 0 0 0 0 0 0 0 0 0 0 0 0 0 0 0 0 0 0 0 0 0 0 0 0 0 0 0 0 0 0 0 0 0 0 0 0
1 0 0 0 0 0 0 0 0 0 0 0 0 0 0 0 0 0 0 0 0 0 0 0 0 0 0 0 0 0 0 0 0 0 0 0 0 0 0 0 0 0 0
2 1 1 0 0 0 0 0 0 0 0 0 0 0 0 0 0 0 0 0 0 0 0 0 0 0 0 0 0 0 0 0 0 0 0 0 0 0 0 0 0 0 0
3 3 2 1 0 0 0 0 0 0 0 0 0 0 0 0 0 0 0 0 0 0 0 0 0 0 0 0 0 0 0 0 0 0 0 0 0 0 0 0 0 0 0
3 3 3 1 0 0 0 0 0 0 0 0 0 0 0 0 0 0 0 0 0 0 0 0 0 0 0 0 0 0 0 0 0 0 0 0 0 0 0 0 0 0 0
2 3 3 2 1 1 0 0 0 0 0 0 0 0 0 0 0 0 0 0 0 0 0 0 0 0 0 0 0 0 0 0 0 0 0 0 0 0 0 0 0 0 0
1 1 3 3 3 2 1 0 0 0 0 0 0 0 0 0 0 0 0 0 0 0 0 0 0 0 0 0 0 0 0 0 0 0 0 0 0 0 0 0 0 0 0
0 1 2 3 3 3 2 1 0 0 0 0 0 0 0 0 0 0 0 0 0 0 0 0 0 0 0 0 0 0 0 0 0 0 0 0 0 0 0 0 0 0 0
0 0 1 2 3 3 3 2 1 0 0 0 0 0 0 0 0 0 0 0 0 0 0 0 0 0 0 0 0 0 0 0 0 0 0 0 0 0 0 0 0 0 0
0 0 0 1 2 2 3 2 1 0 0 0 0 0 0 0 0 0 0 0 0 0 0 0 0 0 0 0 0 0 0 0 0 0 0 0 0 0 0 0 0 0 0
0 0 0 0 1 1 1 2 1 0 0 0 0 0 0 0 0 0 0 0 0 0 0 0 0 0 0 0 0 0 0 0 0 0 0 0 0 0 0 0 0 0 0
0 0 0 0 0 0 0 1 1 0 0 0 0 0 0 0 0 0 0 0 0 0 0 0 0 0 0 0 0 0 0 0 0 0 0 0 0 0 0 0 0 0 0
0 0 0 0 0 0 0 0 0 0 0 0 0 0 0 0 0 0 0 0 0 0 0 0 0 0 0 0 0 0 0 0 0 0 0 0 0 0 0 0 0 0 0
0 0 0 0 0 0 0 0 0 0 0 0 0 0 0 0 0 0 0 0 0 0 0 0 0 0 0 0 0 0 0 0 0 0 0 0 0 0 0 0 0 0 0
0 0 0 0 0 0 0 0 0 0 0 0 0 0 0 0 0 0 0 0 0 0 0 0 0 0 0 0 0 0 0 0 0 0 0 0 0 0 0 0 0 0 0
0 0 0 0 0 0 0 0 0 0 0 0 0 0 0 0 0 0 0 0 0 0 0 0 0 0 0 0 0 0 0 0 0 0 0 0 0 0 0 0 0 0 0
0 0 0 0 0 0 0 0 0 0 0 0 0 0 0 0 0 0 0 0 0 0 0 0 0 0 0 0 0 0 0 0 0 0 0 0 0 0 0 0 0 0 0
Wind_Speed
2 1 1 1 1 1 1 1 1 1 1 1 1 1 1 1 1 1 1 2 2 1 1 1 1 1 1 1 2 2 2 3 3 3 4 4 4 5 5 6 6 6 6
2 2 1 1 1 1 1 1 1 1 1 1 1 1 1 1 1 1 1 2 3 2 1 1 1 2 2 2 2 2 3 3 4 4 4 4 5 5 6 6 6 7 7
2 2 2 1 1 1 1 1 1 1 1 1 1 0 1 1 1 0 0 1 1 3 2 2 3 3 3 3 3 3 3 4 4 5 5 5 6 6 6 7 7 8 8
2 2 2 2 2 1 1 1 1 1 1 1 0 1 0 0 0 0 0 0 1 1 2 2 3 4 4 3 3 4 4 4 5 5 6 6 6 7 7 8 8 9 9
2 2 2 2 2 2 1 1 1 1 1 0 0 1 0 0 1 1 1 1 1 1 1 2 3 4 4 4 4 4 4 4 5 6 6 6 7 8 8 9 9 9 10
2 2 1 2 2 2 1 1 1 0 1 0 0 1 1 1 1 1 1 1 1 1 1 1 1 3 4 4 4 5 5 5 6 6 7 7 7 8 9 10 10 10 10
2 2 2 2 2 2 3 2 2 1 0 1 1 2 2 2 1 1 1 0 1 1 0 1 1 1 2 4 4 5 6 6 6 7 7 8 8 9 9 10 10 11 11
2 2 2 2 2 2 2 2 2 1 0 1 2 1 1 2 2 2 1 1 1 1 1 1 1 1 1 1 3 5 6 7 7 8 8 8 9 9 10 10 11 11 11
2 2 3 2 3 3 3 3 3 3 2 1 1 2 2 2 2 2 2 1 1 1 1 1 1 1 1 1 2 4 6 7 8 8 9 9 10 10 10 10 10 11 11
1 2 2 3 3 3 3 3 3 2 3 2 0 0 1 1 2 1 2 2 1 1 2 2 2 2 1 1 2 4 5 6 7 8 9 9 10 10 10 10 11 11 11
1 1 2 2 2 2 3 3 3 3 3 3 2 1 0 0 1 2 2 2 2 2 2 2 2 1 2 1 2 3 4 6 7 8 9 9 10 10 11 11 12 12 12
1 1 1 2 2 2 2 3 3 3 3 3 2 2 2 2 2 2 2 2 2 2 2 2 2 1 1 1 2 4 4 6 7 8 8 9 10 10 11 12 12 12 13
1 2 1 1 1 2 2 2 2 3 4 4 3 2 2 2 2 2 2 2 2 2 2 2 2 1 1 1 2 5 5 6 7 8 8 9 9 10 11 12 12 11 12
2 3 2 2 2 2 2 2 2 2 2 3 3 3 2 2 2 2 2 2 2 2 2 3 2 1 1 1 3 5 4 7 8 8 8 9 9 10 10 11 11 11 11
2 2 2 2 2 2 2 2 2 2 2 3 3 3 3 2 2 2 2 2 3 3 3 3 2 1 1 1 4 3 3 8 9 9 9 9 9 9 10 10 11 11 11
2 2 2 2 2 2 2 2 2 2 2 2 2 3 3 2 2 2 2 2 2 3 3 2 2 2 3 3 5 3 4 9 9 9 9 8 9 9 9 10 11 11 11
2 2 2 2 2 2 2 2 2 2 2 2 2 3 3 3 2 2 2 2 2 2 4 3 2 2 3 3 4 4 4 4 5 9 9 9 9 9 9 10 10 10 10
1 1 1 2 2 2 2 3 2 2 3 3 3 3 4 3 3 2 2 2 3 3 3 4 3 2 3 3 3 4 4 4 4 8 9 8 8 8 9 8 8 8 8
1 1 1 2 2 2 2 3 3 3 3 3 3 3 3 3 3 2 3 3 3 3 3 3 4 2 2 3 3 4 4 4 5 6 7 8 8 8 8 8 8 8 8
2 1 1 1 2 2 2 2 2 3 3 3 3 3 3 4 4 4 3 4 3 3 3 3 3 3 3 2 2 3 4 3 4 4 5 6 7 8 8 8 8 8 8
1 1 1 1 1 1 2 2 2 2 2 3 3 3 3 4 6 5 4 4 4 3 3 3 3 3 3 2 2 2 3 4 3 2 3 3 3 3 4 6 7 7 8
1 1 1 1 1 2 2 3 2 2 2 3 3 3 3 4 5 7 7 7 6 5 4 4 3 4 4 3 3 3 3 3 3 2 2 3 2 3 3 3 6 8 8
1 1 1 1 2 2 4 4 4 2 2 3 3 3 3 3 4 2 4 5 5 6 6 5 5 5 5 4 3 3 3 4 4 3 2 4 3 4 3 4 8 8 8
1 1 1 1 1 3 4 4 4 2 2 3 3 3 3 3 3 2 2 2 3 4 5 4 5 5 5 4 4 4 4 4 3 3 2 3 3 3 4 3 7 8 8
1 1 1 1 2 3 4 4 4 1 2 2 2 3 3 3 5 5 3 3 3 3 5 6 6 5 6 5 3 1 2 3 4 3 1 2 2 3 3 3 4 7 7
1 1 1 1 2 3 4 4 3 1 2 2 2 2 4 5 5 5 3 3 4 4 3 2 3 4 3 4 5 3 3 3 3 3 2 1 2 2 3 2 2 3 4
Wind_Direction
120 104 94 84 83 88 94 97 99 89 66 51 59 78 76 81 78 47 1 25 27 29 52 39 36 21 1 341 341 340 346 335 324 330 332 329 329 328 326 328 327 326 326
139 135 118 110 103 108 113 114 107 98 74 64 64 88 114 111 91 63 27 1 2 349 325 320 328 311 305 308 315 321 324 325 320 313 314 318 317 314 314 317 318 318 318
150 147 142 143 150 116 98 87 77 78 67 47 32 32 121 136 149 130 34 359 341 342 329 316 309 301 294 294 301 312 317 319 322 320 315 312 309 310 309 311 310 309 308
153 147 154 163 150 121 108 117 120 89 61 49 359 330 4 160 176 215 224 269 320 328 321 311 304 296 291 290 299 301 304 313 318 319 317 314 314 312 312 311 308 306 306
169 156 165 172 148 135 127 149 113 121 128 48 313 310 298 237 234 233 244 245 254 277 297 310 308 305 295 289 296 300 304 307 311 313 313 315 313 311 311 312 312 309 305
172 157 162 169 157 147 145 146 136 112 166 185 11 350 319 284 246 226 235 255 270 267 284 299 302 304 306 296 296 300 300 300 306 310 312 312 313 312 311 311 314 314 310
179 166 167 174 170 168 175 167 149 138 105 87 64 359 334 319 282 264 244 231 284 291 274 276 293 298 311 319 313 308 307 306 308 308 311 313 312 312 312 312 314 314 314
186 182 169 179 181 172 173 172 148 143 157 126 127 101 328 329 327 321 298 234 270 320 308 308 290 284 296 313 321 320 314 313 314 312 310 307 309 310 310 311 313 314 314
198 189 181 177 184 176 187 192 175 165 175 225 150 156 175 231 293 307 308 303 310 307 304 305 298 284 278 303 302 309 317 316 313 314 313 308 307 308 309 312 314 315 316
197 195 181 178 182 180 184 201 188 179 165 188 241 192 198 190 196 288 314 318 318 305 309 315 308 297 284 269 293 310 320 319 315 317 317 316 312 310 312 315 314 315 316
194 191 183 174 178 186 186 194 192 183 178 182 190 202 230 283 216 196 264 298 317 296 291 286 282 286 283 271 269 294 323 321 317 317 317 315 314 314 314 315 315 315 315
203 215 194 179 182 187 194 200 198 192 193 187 190 195 197 209 223 208 235 260 277 290 299 284 270 269 271 279 297 320 327 326 320 317 317 315 312 312 312 312 313 315 316
208 224 215 197 200 205 195 198 192 194 195 192 202 213 218 230 227 214 215 241 271 289 297 294 281 278 286 298 308 319 317 321 318 316 315 315 313 313 310 310 310 314 318
208 210 203 205 213 216 203 188 193 207 195 193 208 212 221 238 234 217 205 201 258 283 279 273 301 285 310 318 320 325 308 314 311 307 306 307 307 309 310 311 312 313 315
198 193 192 198 204 213 211 190 194 211 205 204 209 211 220 234 235 231 221 201 199 246 267 253 261 286 300 306 310 314 305 306 308 303 300 300 301 302 305 308 310 310 311
187 179 187 199 202 202 207 202 204 210 206 216 210 211 226 229 232 226 222 223 214 221 250 250 248 276 293 305 307 310 300 312 307 301 298 299 299 300 304 306 306 306 311
178 176 193 202 207 207 213 210 217 219 220 231 231 222 233 228 228 230 222 222 225 217 246 268 264 278 285 290 304 304 297 295 294 296 299 300 300 302 304 305 306 307 313
188 191 196 210 214 209 209 214 221 230 222 230 237 232 239 236 234 232 225 231 230 220 229 259 276 282 278 281 290 295 301 304 292 300 302 303 306 308 308 309 312 313 316
178 188 199 218 228 221 217 222 224 233 233 236 242 241 244 235 240 238 231 231 232 236 228 244 269 277 278 287 297 298 298 296 296 303 307 308 310 311 313 313 315 313 315
179 195 217 235 240 234 224 225 228 234 239 244 246 246 246 239 239 236 236 234 231 234 232 240 260 273 276 282 282 293 304 302 299 306 312 312 312 316 318 318 317 316 318
195 198 211 259 265 247 232 227 231 236 241 256 261 258 254 251 251 248 242 233 223 226 228 239 256 267 271 273 265 268 286 297 295 289 300 304 306 302 304 308 311 312 317
210 192 217 241 270 273 278 271 262 241 244 249 262 268 268 266 265 265 259 249 236 228 226 229 244 252 259 252 256 265 280 298 297 295 302 295 294 289 289 279 300 310 316
207 225 234 234 261 272 276 278 275 255 247 251 256 262 270 267 271 257 268 270 265 258 245 232 235 244 246 241 241 262 269 271 272 282 293 288 288 285 284 292 300 303 313
221 227 238 246 261 275 279 278 284 264 251 256 257 252 251 258 254 238 239 258 262 263 257 245 234 240 239 233 227 240 259 274 275 273 261 275 289 285 289 281 290 301 313
260 248 246 241 249 271 279 278 284 247 248 261 257 250 247 244 260 258 237 237 252 261 265 260 257 262 260 262 257 245 259 273 283 272 239 257 283 295 288 277 284 303 312
263 280 277 256 249 263 282 286 285 234 246 263 267 257 255 257 263 264 235 227 247 254 251 266 271 285 282 277 273 246 235 249 270 276 242 240 274 313 307 288 280 289 296